[[[{"header":{"parameterUnit":"kt","parameterCategory":2,"dx":1,"dy":1,"la1":30.253999710083008,"la2":30.299108505249023,"lo1":-89.0895004272461,"lo2":-89.04439544677734,"nx":28,"ny":28,"refTime":"2022-09-30T21:00:00:Z","depth":"0","parameterNumber":2,"parameterNumberName":"U-component_of_CURRENTS"},"data":[0.6642,0.6591,0.6588,0.6453,0.6394,0.6158,0.6072,0.5892,0.5807,0.5443,0.5163,0.5129,0.4862,0.4432,0.3986,0.3901,0.373,0.3453,0.3732,0.4294,0.4415,0.4531,0.4193,0.3385,0.3384,0.2566,0.2559,0.2554,0.6716,0.671,0.6695,0.661,0.6544,0.6556,0.649,0.6319,0.6261,0.6304,0.6313,0.5945,0.5722,0.5558,0.512,0.4899,0.4807,0.4764,0.4487,0.4474,0.5335,0.4993,0.4341,0.4342,0.4342,0.4342,0.4343,0.4343,0.6848,0.6812,0.6772,0.6713,0.6692,0.6639,0.654,0.655,0.6557,0.6525,0.6718,0.6678,0.651,0.6647,0.6668,0.621,0.6502,0.6016,0.6069,0.6024,0.5588,0.6222,0.6264,0.627,0.6276,0.6282,0.6286,0,0.6866,0.6866,0.68,0.6757,0.6726,0.665,0.6621,0.6638,0.6654,0.6728,0.6815,0.6937,0.7156,0.7094,0.7272,0.7367,0.7168,0.7406,0.726,0.6278,0.5808,0.5605,0.6619,0.6914,0.6925,0.6933,0.6939,0.6944,0.6906,0.6868,0.6767,0.6731,0.6665,0.6629,0.6603,0.6596,0.6621,0.6755,0.6828,0.7121,0.7241,0.7693,0.7768,0.8027,0.7887,0.7654,0.7485,0.7013,0.6941,0.678,0.6613,0.7061,0.7046,0.7033,0.7024,0,0.6906,0.683,0.6728,0.6609,0.6584,0.6576,0.6491,0.6534,0.6607,0.6722,0.6812,0.7009,0.733,0.756,0.8092,0.8078,0.8093,0.835,0.7576,0.7463,0.7013,0.6947,0.7111,0.6935,0.8336,0.833,0.8325,0,0.6824,0.6772,0.6632,0.6577,0.6553,0.641,0.6454,0.6442,0.6519,0.6582,0.6722,0.6859,0.7247,0.7507,0.7684,0.7893,0.8225,0.7935,0.7919,0.7415,0.7321,0.7156,0.7064,0.8522,0.8519,0.8516,0.8513,0,0.6777,0.6609,0.6559,0.6478,0.6273,0.6276,0.6215,0.622,0.6214,0.6428,0.6493,0.6844,0.6994,0.7384,0.7469,0.741,0.8016,0.7963,0.7784,0.7746,0.7394,0.7298,0.7531,0.8509,0.8509,0.8507,0.8506,0,0.6627,0.6514,0.6455,0.6251,0.6202,0.6175,0.611,0.6082,0.6157,0.6149,0.6331,0.6355,0.6668,0.6565,0.7101,0.6898,0.7072,0.7181,0.72,0.6849,0.6584,0.6445,0.6716,0.646,0.719,0.718,0.7172,0,0.6588,0.6471,0.6279,0.62,0.6079,0.5874,0.5882,0.5796,0.5745,0.5805,0.5887,0.5995,0.5885,0.5956,0.6231,0.6362,0.6656,0.631,0.6815,0.6827,0.6491,0.6849,0.6308,0.6595,0.7051,0.7063,0.7073,0,0.6488,0.6167,0.6165,0.6053,0.5786,0.5677,0.5673,0.5554,0.5583,0.5508,0.5612,0.5703,0.5698,0.5747,0.5708,0.598,0.6424,0.5941,0.5954,0.6114,0.7111,0.6717,0.6759,0.6548,0.6565,0.6579,0.6977,0,0.628,0.6124,0.6095,0.5824,0.572,0.5614,0.538,0.533,0.5195,0.51,0.521,0.5211,0.5292,0.5274,0.5224,0.5595,0.5533,0.5523,0.551,0.5755,0.5861,0.5938,0.4981,0.4977,0.4974,0.4971,0,0,0.6242,0.5985,0.5699,0.5608,0.5475,0.5191,0.5128,0.5058,0.4831,0.4829,0.473,0.4834,0.4819,0.5036,0.5057,0.5021,0.5166,0.5057,0.5545,0.5608,0.5667,0.579,0.5866,0.4966,0.4964,0.4963,0.4962,0,0.6061,0.5801,0.5711,0.5549,0.5271,0.5109,0.5062,0.4779,0.4716,0.4695,0.4609,0.4669,0.469,0.4749,0.4789,0.4958,0.5036,0.4926,0.5149,0.5504,0.557,0.5631,0.5763,0.5834,0.4955,0.4955,0.4955,0,0.591,0.5629,0.5515,0.5161,0.5018,0.4918,0.4699,0.4582,0.4532,0.4424,0.4432,0.4418,0.4445,0.4557,0.46,0.4565,0.4954,0.4724,0.4739,0.4826,0.5193,0.5265,0.5329,0.4525,0.4525,0.4524,0,0,0.5804,0.5612,0.5215,0.5086,0.4991,0.4741,0.4666,0.4523,0.4408,0.4399,0.4342,0.4345,0.4404,0.4441,0.4472,0.4604,0.473,0.4678,0.4698,0.4715,0.4809,0.5177,0.5244,0.4521,0.4521,0.4521,0,0,0.5759,0.5262,0.5114,0.4922,0.4721,0.4449,0.4469,0.4319,0.4319,0.433,0.4256,0.4258,0.4347,0.4341,0.43,0.4479,0.4384,0.4395,0.4519,0.4544,0.4564,0.4668,0.4244,0,0,0,0,0,0.5349,0.5298,0.5165,0.5079,0.4686,0.4492,0.4468,0.4301,0.4224,0.4258,0.4223,0.4201,0.4299,0.4262,0.4281,0.4393,0.4482,0.4489,0.4495,0.4682,0.4708,0.473,0,0,0,0,0,0,0.5311,0.5204,0.5166,0.4861,0.4768,0.4495,0.4356,0.432,0.4219,0.4202,0.4204,0.4202,0.4185,0.4252,0.427,0.4377,0.4238,0.4485,0.4491,0.4496,0.4691,0.4713,0.4731,0,0,0,0,0,0.5281,0.5194,0.4562,0.4871,0.4791,0.4536,0.4357,0.4324,0.4296,0.4208,0.4201,0.4155,0.4188,0.42,0.4263,0.437,0.4226,0.4232,0.4489,0.4493,0.4497,0.4702,0,0,0,0,0,0,0.5258,0.5287,0.4549,0.4525,0.4823,0.4556,0.4495,0.4329,0.4315,0.4291,0.4161,0.4149,0.4192,0.4201,0.421,0.4369,0.4216,0.4222,0.4227,0.4492,0.4496,0.4499,0,0,0,0,0,0,0.5329,0.5268,0.4539,0.4488,0.4459,0.4575,0.4519,0.4599,0.4326,0.4285,0.4262,0.4156,0.4194,0.4202,0.4209,0.4345,0.4208,0.4214,0.4219,0.4222,0.4495,0.4498,0,0,0,0,0,0,0.5304,0.5252,0.4498,0.4476,0.4451,0.421,0.4662,0.431,0.4138,0.43,0.4124,0.4118,0.4199,0.4203,0.4209,0.4342,0.4345,0.4208,0.4213,0.4216,0.4218,0,0,0,0,0,0,0,0.5284,0.5621,0.4631,0.4465,0.4444,0.429,0.4289,0.4289,0.4136,0.4131,0.4125,0.412,0.4172,0.4179,0.4186,0.434,0,0,0.4208,0.4211,0,0,0,0,0,0,0,0,0.5643,0.5626,0.4629,0.4621,0.4613,0.4289,0.4289,0.4289,0.4135,0.4131,0.4127,0.4122,0.4174,0.4179,0.4185,0,0,0,0,0,0,0,0,0,0,0,0,0,0,0,0.4629,0.4622,0,0.4289,0.4289,0.4289,0.4135,0.4131,0.4127,0.4124,0.4175,0.418,0.4185,0,0,0,0,0,0,0,0,0,0,0,0,0,0,0,0,0,0,0,0,0,0,0,0,0,0,0,0,0,0,0,0,0,0,0,0,0,0,0,0,0,0,0,0,0,0,0,0,0,0,0,0,0,0,0,0,0,0,0,0,0,0,0,0,0,0,0,0,0]}],[{"header":{"parameterUnit":"kt","parameterCategory":2,"dx":1,"dy":1,"la1":30.253999710083008,"la2":30.299108505249023,"lo1":-89.0895004272461,"lo2":-89.04439544677734,"nx":28,"ny":28,"refTime":"2022-09-30T21:00:00:Z","depth":"0","parameterNumber":3,"parameterNumberName":"V-component_of_CURRENTS"},"data":[-0.1122,-0.0621,-0.0424,0.0249,0.0597,0.103,0.1251,0.1491,0.18,0.2074,0.2226,0.2322,0.1961,0.0632,-0.0299,-0.0507,-0.0651,-0.0809,-0.0773,-0.0403,-0.0339,-0.0278,-0.0396,-0.089,-0.0891,-0.127,-0.1275,-0.1278,-0.1426,-0.112,-0.0604,0.0001,0.0425,0.0621,0.1195,0.1418,0.1748,0.2183,0.239,0.2306,0.1798,0.1364,0.0526,0.0084,-0.0002,-0.012,-0.0177,-0.0162,0.0341,0.0233,-0.0136,-0.0135,-0.0135,-0.0135,-0.0135,-0.0135,-0.1861,-0.1531,-0.1055,-0.05,-0.0018,0.0457,0.0785,0.1249,0.1719,0.2196,0.2346,0.256,0.2223,0.1744,0.1445,0.0812,0.0912,0.0568,0.0525,0.0505,0.0351,0.0666,0.0671,0.0673,0.0675,0.0677,0.0678,0,-0.2125,-0.1974,-0.1541,-0.0944,-0.0482,0.0048,0.0601,0.0908,0.1434,0.1832,0.226,0.2423,0.2417,0.2181,0.1826,0.1591,0.1323,0.1369,0.1237,0.0795,0.0505,0.0354,0.0909,0.1162,0.1167,0.1171,0.1173,0.1175,-0.2444,-0.2208,-0.1595,-0.1262,-0.0971,-0.0449,-0.0022,0.0437,0.0891,0.1542,0.1878,0.219,0.2417,0.2405,0.2139,0.1888,0.1713,0.1503,0.1353,0.0996,0.0822,0.0731,0.066,0.1228,0.1221,0.1215,0.1211,0,-0.2584,-0.2327,-0.1832,-0.1277,-0.1095,-0.0736,-0.0079,0.0359,0.0757,0.1399,0.1583,0.2051,0.2211,0.2227,0.2325,0.2095,0.1882,0.1894,0.1571,0.1449,0.0927,0.0824,0.0949,0.0879,0.1605,0.16,0.1596,0,-0.2623,-0.2333,-0.1862,-0.1618,-0.1141,-0.0825,-0.0279,0.0063,0.0614,0.1102,0.1376,0.1759,0.1911,0.2077,0.1927,0.1837,0.2096,0.1603,0.1516,0.1363,0.1309,0.1113,0.0988,0.2014,0.2014,0.2014,0.2014,0,-0.2677,-0.2231,-0.1875,-0.1698,-0.1101,-0.0877,-0.0593,-0.0065,0.0295,0.0838,0.1151,0.1505,0.1714,0.1798,0.1703,0.1609,0.1926,0.1783,0.1451,0.1417,0.1267,0.1201,0.1489,0.2013,0.2013,0.2013,0.2013,0,-0.2605,-0.2306,-0.1939,-0.1369,-0.1251,-0.1049,-0.0465,-0.0215,0.0313,0.0521,0.0869,0.1005,0.1337,0.114,0.1412,0.1291,0.1213,0.1194,0.1195,0.0879,0.0563,0.0448,0.082,0.0637,0.0954,0.0948,0.0942,0,-0.2608,-0.2251,-0.2026,-0.1677,-0.1413,-0.1132,-0.0881,-0.0538,-0.0273,0.01,0.0284,0.0544,0.038,0.0507,0.0694,0.0736,0.0873,0.0688,0.0728,0.0726,0.0454,0.087,0.0717,0.0736,0.0864,0.0873,0.0878,0,-0.2594,-0.2096,-0.2086,-0.1846,-0.1524,-0.1332,-0.1107,-0.0735,-0.0465,-0.0339,0.0028,0.01,0.0204,0.022,0.0205,0.039,0.0706,0.0224,0.0227,0.0207,0.1046,0.0778,0.0802,0.075,0.0763,0.0774,0.0817,0,-0.23,-0.2102,-0.2044,-0.1764,-0.1597,-0.1428,-0.1167,-0.1013,-0.0904,-0.074,-0.0465,-0.0487,-0.0339,-0.0329,-0.0435,-0.0052,-0.0218,-0.0262,-0.0415,-0.0081,-0.0136,-0.0086,-0.0782,-0.0789,-0.0795,-0.0799,0,0,-0.2358,-0.2109,-0.1933,-0.1792,-0.1626,-0.1455,-0.1299,-0.1209,-0.1061,-0.092,-0.1033,-0.0857,-0.0942,-0.0699,-0.0616,-0.0702,-0.0696,-0.0771,-0.0289,-0.0232,-0.0179,-0.0208,-0.0154,-0.081,-0.0812,-0.0814,-0.0816,0,-0.2226,-0.2057,-0.1969,-0.1805,-0.1578,-0.1466,-0.1392,-0.1223,-0.117,-0.1077,-0.1124,-0.1016,-0.1125,-0.105,-0.1054,-0.0806,-0.0944,-0.0848,-0.0573,-0.0348,-0.0283,-0.0226,-0.0241,-0.0188,-0.083,-0.0829,-0.0829,0,-0.217,-0.1984,-0.1916,-0.1641,-0.157,-0.1427,-0.1413,-0.13,-0.1181,-0.1357,-0.1311,-0.1338,-0.1417,-0.1354,-0.1341,-0.1436,-0.1161,-0.1327,-0.1297,-0.1246,-0.1023,-0.0949,-0.0883,-0.1721,-0.1723,-0.1725,0,0,-0.2107,-0.1975,-0.1707,-0.1603,-0.1521,-0.142,-0.1372,-0.1323,-0.13,-0.133,-0.1392,-0.1457,-0.1461,-0.149,-0.1545,-0.1514,-0.1518,-0.1428,-0.1386,-0.1351,-0.128,-0.1049,-0.0979,-0.1734,-0.1734,-0.1734,0,0,-0.211,-0.1807,-0.174,-0.159,-0.1432,-0.1332,-0.1341,-0.1287,-0.1347,-0.1392,-0.1516,-0.1551,-0.1508,-0.162,-0.1706,-0.1572,-0.1752,-0.174,-0.1495,-0.1446,-0.1405,-0.1304,-0.1898,0,0,0,0,0,-0.1879,-0.1809,-0.1746,-0.169,-0.1493,-0.1324,-0.132,-0.1325,-0.1362,-0.135,-0.1434,-0.1567,-0.1664,-0.1747,-0.1781,-0.165,-0.1838,-0.182,-0.1802,-0.148,-0.1426,-0.1379,0,0,0,0,0,0,-0.1855,-0.1786,-0.1747,-0.1617,-0.1569,-0.1333,-0.1419,-0.1427,-0.1366,-0.1377,-0.1542,-0.1573,-0.17,-0.1743,-0.1771,-0.164,-0.1889,-0.1831,-0.1815,-0.1801,-0.1462,-0.1417,-0.1378,0,0,0,0,0,-0.1836,-0.178,-0.1433,-0.1627,-0.1587,-0.1535,-0.1426,-0.1431,-0.144,-0.1539,-0.157,-0.1423,-0.1697,-0.1729,-0.176,-0.162,-0.1871,-0.188,-0.1821,-0.1808,-0.1797,-0.144,0,0,0,0,0,0,-0.1821,-0.1901,-0.143,-0.1421,-0.1632,-0.1555,-0.1536,-0.1435,-0.1616,-0.1629,-0.1432,-0.1439,-0.1694,-0.172,-0.1744,-0.16,-0.1856,-0.1866,-0.1872,-0.1811,-0.1802,-0.1793,0,0,0,0,0,0,-0.1926,-0.1895,-0.1429,-0.1434,-0.1429,-0.1573,-0.1554,-0.1647,-0.1626,-0.1516,-0.1515,-0.1433,-0.167,-0.1713,-0.1733,-0.188,-0.1844,-0.1854,-0.1861,-0.1865,-0.1803,-0.1796,0,0,0,0,0,0,-0.1916,-0.1889,-0.1441,-0.1436,-0.1433,-0.1383,-0.1672,-0.1512,-0.149,-0.1518,-0.1494,-0.1495,-0.1662,-0.1683,-0.1724,-0.1862,-0.1875,-0.1845,-0.1851,-0.1856,-0.1859,0,0,0,0,0,0,0,-0.1907,-0.2054,-0.1416,-0.1439,-0.1437,-0.133,-0.1334,-0.1338,-0.149,-0.1492,-0.1493,-0.1495,-0.179,-0.18,-0.1811,-0.1848,0,0,-0.1844,-0.1848,0,0,0,0,0,0,0,0,-0.2068,-0.2057,-0.1415,-0.141,-0.1405,-0.1331,-0.1334,-0.1338,-0.1491,-0.1492,-0.1493,-0.1494,-0.1793,-0.1801,-0.181,0,0,0,0,0,0,0,0,0,0,0,0,0,0,0,-0.1415,-0.141,0,-0.1331,-0.1334,-0.1337,-0.1491,-0.1492,-0.1493,-0.1494,-0.1795,-0.1802,-0.1809,0,0,0,0,0,0,0,0,0,0,0,0,0,0,0,0,0,0,0,0,0,0,0,0,0,0,0,0,0,0,0,0,0,0,0,0,0,0,0,0,0,0,0,0,0,0,0,0,0,0,0,0,0,0,0,0,0,0,0,0,0,0,0,0,0,0,0,0,0]}]],[[{"header":{"parameterUnit":"kt","parameterCategory":2,"dx":1,"dy":1,"la1":30.253999710083008,"la2":30.299108505249023,"lo1":-89.0895004272461,"lo2":-89.04439544677734,"nx":28,"ny":28,"refTime":"2022-09-30T21:00:00:Z","depth":"2","parameterNumber":2,"parameterNumberName":"U-component_of_CURRENTS"},"data":[0.56,0.5576,0.5533,0.5306,0.5298,0.5027,0.4827,0.439,0.4145,0.3532,0.3229,0.3209,0.333,0.2758,0.2697,0.2502,0.3075,0.2418,0.3349,0.4118,0.4239,0.4614,0.4341,0,0,0,0,0,0.5586,0.5606,0.5751,0.5735,0.5652,0.5787,0.5689,0.5366,0.4963,0.4877,0.4582,0.3969,0.3538,0.3511,0.3189,0.3048,0.337,0.2951,0.3485,0.3623,0.3748,0.3479,0.2383,0.2379,0.2374,0.2371,0,0,0.5532,0.566,0.5746,0.5821,0.5931,0.5896,0.5784,0.5772,0.5708,0.5464,0.5656,0.5213,0.5146,0.4321,0.415,0.4084,0.4474,0.4447,0.4525,0.4613,0.436,0.3896,0.351,0.3514,0.3517,0.352,0.3523,0,0.5331,0.5345,0.558,0.5727,0.5824,0.5966,0.606,0.609,0.6222,0.6272,0.6188,0.6085,0.5875,0.5474,0.5134,0.5093,0.5678,0.5303,0.6278,0.5785,0.5348,0.5232,0.5254,0.5299,0.5313,0.5324,0.5332,0.5338,0.4896,0.5111,0.541,0.5498,0.56,0.586,0.5935,0.6094,0.6195,0.6397,0.6493,0.657,0.6464,0.6357,0.6264,0.614,0.6482,0.5676,0.5715,0.6198,0.6075,0.6056,0.6034,0.5493,0.5473,0.5457,0.5444,0,0.4603,0.472,0.5123,0.5401,0.5458,0.5716,0.5819,0.6,0.6187,0.645,0.6592,0.6808,0.6856,0.6979,0.7291,0.7126,0.7132,0.6934,0.6369,0.6192,0.6185,0.6135,0.6354,0.6329,0.6308,0.6291,0.6276,0,0.4219,0.4534,0.4726,0.4959,0.529,0.5389,0.5694,0.5869,0.6099,0.6302,0.6564,0.6729,0.7148,0.726,0.7322,0.7112,0.7627,0.6944,0.6837,0.6605,0.6495,0.7413,0.7351,0.7942,0.7942,0.7942,0.7942,0,0.3946,0.4217,0.4561,0.4672,0.4958,0.512,0.5233,0.5513,0.5692,0.6144,0.6278,0.6762,0.6927,0.7242,0.7159,0.7181,0.7476,0.7522,0.6858,0.6788,0.6601,0.6484,0.7942,0.7942,0.7942,0.7942,0.7942,0,0.3658,0.3866,0.421,0.4552,0.4628,0.474,0.5155,0.5312,0.5652,0.5799,0.6134,0.6256,0.6643,0.6523,0.6957,0.682,0.6862,0.6887,0.6891,0.6198,0.586,0.5531,0.5766,0.6631,0.6623,0.6616,0.661,0,0.3518,0.379,0.3777,0.411,0.4335,0.4405,0.4584,0.4828,0.4997,0.5295,0.5537,0.5823,0.5743,0.5888,0.6153,0.6269,0.6469,0.6244,0.6502,0.6504,0.574,0.6055,0.5762,0.5691,0.6516,0.6526,0.6533,0,0.3404,0.3574,0.3615,0.3821,0.392,0.4034,0.4226,0.4494,0.4699,0.4865,0.5189,0.5452,0.5533,0.5651,0.5692,0.5929,0.6264,0.5849,0.5861,0.5748,0.6768,0.6001,0.5987,0.6428,0.6445,0.6459,0.6459,0,0.3523,0.3592,0.3595,0.3686,0.3769,0.3871,0.3976,0.4127,0.4197,0.4301,0.4678,0.4792,0.506,0.5087,0.5062,0.5532,0.5381,0.5422,0.5282,0.5635,0.5554,0.5613,0.4861,0.4857,0.4854,0.4851,0,0,0.3502,0.3502,0.3433,0.3503,0.3593,0.3587,0.371,0.3784,0.389,0.4047,0.3956,0.4367,0.4407,0.4783,0.4889,0.4891,0.4953,0.4835,0.5425,0.5487,0.5546,0.5493,0.5553,0.4845,0.4844,0.4843,0.4842,0,0.3499,0.3427,0.3413,0.347,0.3537,0.3551,0.3569,0.3596,0.368,0.3858,0.3895,0.409,0.4231,0.4398,0.4481,0.4811,0.4745,0.4829,0.5051,0.5383,0.5449,0.551,0.547,0.5526,0.4834,0.4835,0.4835,0,0.3526,0.3466,0.3414,0.3379,0.3398,0.3468,0.3381,0.3421,0.3534,0.3477,0.3661,0.3744,0.3859,0.4093,0.4192,0.4107,0.4553,0.4369,0.4391,0.4468,0.4806,0.4883,0.4951,0.407,0.4067,0.4064,0,0,0.3547,0.3467,0.3431,0.3363,0.3384,0.3377,0.3391,0.34,0.3433,0.3467,0.3511,0.3621,0.3772,0.3838,0.3966,0.4147,0.4204,0.4272,0.4308,0.4337,0.4428,0.4772,0.4846,0.4053,0.4053,0.4052,0,0,0.3525,0.3397,0.3414,0.33,0.3346,0.329,0.3323,0.3306,0.3401,0.3423,0.3411,0.3432,0.3652,0.3664,0.352,0.3912,0.3772,0.3802,0.3868,0.3913,0.3949,0.4023,0.3403,0,0,0,0,0,0.3483,0.3408,0.3426,0.3401,0.3293,0.3295,0.3302,0.3288,0.324,0.3297,0.3372,0.3297,0.3636,0.3506,0.3524,0.3662,0.3909,0.3935,0.3959,0.4091,0.4139,0.4179,0,0,0,0,0,0,0.3471,0.3431,0.3429,0.3346,0.3325,0.3292,0.3218,0.3217,0.3237,0.3233,0.329,0.3298,0.3306,0.3492,0.3509,0.3642,0.3397,0.3919,0.3941,0.396,0.4107,0.4147,0.418,0,0,0,0,0,0.3463,0.3431,0.3226,0.3353,0.3335,0.3314,0.3216,0.3215,0.3243,0.3262,0.3269,0.3231,0.3307,0.3324,0.3502,0.3637,0.3385,0.3391,0.3933,0.395,0.3966,0.4127,0,0,0,0,0,0,0.3456,0.3476,0.3227,0.3227,0.3333,0.3321,0.3304,0.3214,0.3273,0.3277,0.3203,0.3199,0.3308,0.3321,0.3334,0.364,0.3375,0.3381,0.3385,0.3946,0.396,0.3972,0,0,0,0,0,0,0.3494,0.3474,0.3227,0.32,0.3198,0.3328,0.3312,0.3385,0.3276,0.3213,0.3209,0.3201,0.33,0.3319,0.3329,0.3446,0.3367,0.3373,0.3378,0.3381,0.3957,0.3968,0,0,0,0,0,0,0.3489,0.3473,0.3201,0.3199,0.3197,0.321,0.3402,0.3303,0.3212,0.3213,0.3206,0.3203,0.33,0.3309,0.3326,0.3439,0.3444,0.3367,0.3372,0.3375,0.3377,0,0,0,0,0,0,0,0.3485,0.3552,0.3213,0.3198,0.3196,0.323,0.3232,0.3233,0.3211,0.3209,0.3207,0.3205,0.3331,0.3338,0.3345,0.3433,0,0,0.3367,0.337,0,0,0,0,0,0,0,0,0.3563,0.3555,0.3213,0.3213,0.3212,0.3231,0.3232,0.3232,0.3211,0.3209,0.3207,0.3205,0.3333,0.3338,0.3344,0,0,0,0,0,0,0,0,0,0,0,0,0,0,0,0.3213,0.3213,0,0.3231,0.3231,0.3232,0.321,0.3209,0.3207,0.3206,0.3334,0.3339,0.3344,0,0,0,0,0,0,0,0,0,0,0,0,0,0,0,0,0,0,0,0,0,0,0,0,0,0,0,0,0,0,0,0,0,0,0,0,0,0,0,0,0,0,0,0,0,0,0,0,0,0,0,0,0,0,0,0,0,0,0,0,0,0,0,0,0,0,0,0,0]}],[{"header":{"parameterUnit":"kt","parameterCategory":2,"dx":1,"dy":1,"la1":30.253999710083008,"la2":30.299108505249023,"lo1":-89.0895004272461,"lo2":-89.04439544677734,"nx":28,"ny":28,"refTime":"2022-09-30T21:00:00:Z","depth":"2","parameterNumber":3,"parameterNumberName":"V-component_of_CURRENTS"},"data":[0.1229,0.1347,0.1459,0.1715,0.1807,0.1996,0.2151,0.2319,0.2436,0.2509,0.2418,0.2284,0.1734,0.1204,0.0693,0.0314,0.0435,0.0242,0.0371,0.0822,0.0868,0.0644,0.0602,0,0,0,0,0,0.1271,0.1376,0.1412,0.1561,0.1706,0.181,0.2116,0.2217,0.2479,0.2625,0.2697,0.2227,0.1732,0.1274,0.0544,0.01,0.0222,0.0011,0.0311,0.0355,0.0394,0.0339,-0.0036,-0.0037,-0.0038,-0.0039,0,0,0.1431,0.1382,0.131,0.1466,0.1576,0.1827,0.1925,0.218,0.2383,0.2672,0.2699,0.2638,0.2243,0.1358,0.0938,0.0513,0.0547,0.0432,0.0462,0.0495,0.0431,0.024,0.0087,0.0087,0.0087,0.0087,0.0087,0,0.1643,0.1469,0.1431,0.1532,0.1607,0.1694,0.1865,0.1992,0.2151,0.2343,0.2604,0.262,0.2293,0.1893,0.1277,0.1009,0.1057,0.084,0.1146,0.1056,0.0877,0.0785,0.0786,0.0865,0.0869,0.0873,0.0875,0.0877,0.1626,0.1657,0.1552,0.1606,0.1605,0.1644,0.1703,0.1792,0.1909,0.2163,0.2349,0.2412,0.2403,0.211,0.1723,0.1304,0.1361,0.0981,0.0908,0.0985,0.0888,0.0879,0.0868,0.0927,0.0921,0.0916,0.0911,0,0.1528,0.1576,0.164,0.1675,0.1719,0.1722,0.1802,0.1857,0.1898,0.2059,0.2141,0.231,0.2282,0.2151,0.2084,0.1818,0.1625,0.1438,0.1323,0.1221,0.0935,0.0912,0.1019,0.1008,0.0998,0.099,0.0984,0,0.136,0.1509,0.1476,0.155,0.1667,0.1718,0.1768,0.1802,0.1857,0.1935,0.1959,0.2086,0.2086,0.2104,0.1904,0.1649,0.1903,0.1358,0.1269,0.1273,0.1231,0.151,0.1479,0.1787,0.1788,0.1788,0.1789,0,0.1089,0.1269,0.1417,0.1469,0.1571,0.1634,0.1689,0.1674,0.1713,0.1781,0.1862,0.1888,0.1947,0.1927,0.1738,0.1699,0.179,0.1715,0.1281,0.1247,0.1253,0.1206,0.179,0.179,0.179,0.179,0.179,0,0.0901,0.0993,0.1162,0.1365,0.1402,0.146,0.1596,0.1637,0.165,0.164,0.1643,0.1585,0.1668,0.1521,0.1562,0.1515,0.1395,0.1341,0.1338,0.1031,0.0803,0.0809,0.088,0.1119,0.1115,0.1112,0.1109,0,0.0716,0.0878,0.0886,0.1092,0.1213,0.1184,0.1278,0.1299,0.1293,0.136,0.1314,0.1318,0.1129,0.1083,0.117,0.1103,0.115,0.1061,0.1079,0.1077,0.0841,0.0925,0.0919,0.084,0.1067,0.1071,0.1074,0,0.0576,0.0652,0.0668,0.0758,0.0792,0.0845,0.0953,0.1029,0.1067,0.1041,0.1168,0.1082,0.0953,0.0944,0.0811,0.0917,0.1048,0.0825,0.0828,0.0849,0.1229,0.0895,0.089,0.1094,0.1103,0.111,0.104,0,0.0489,0.0538,0.0573,0.0638,0.0657,0.0713,0.0719,0.0728,0.0717,0.0705,0.0717,0.063,0.0617,0.0558,0.049,0.0628,0.0528,0.0519,0.0565,0.0652,0.0575,0.0603,0.0241,0.0238,0.0236,0.0234,0,0,0.0365,0.0448,0.0385,0.0429,0.0475,0.0367,0.0456,0.0468,0.0437,0.0458,0.0401,0.0364,0.0306,0.0377,0.037,0.0289,0.0298,0.0377,0.0537,0.057,0.0601,0.0542,0.0571,0.023,0.0229,0.0228,0.0228,0,0.0373,0.0334,0.0381,0.0374,0.0334,0.0348,0.0331,0.0312,0.0333,0.0352,0.0282,0.0227,0.0224,0.0237,0.0241,0.025,0.0274,0.019,0.0378,0.051,0.0547,0.0579,0.0528,0.0556,0.0222,0.0222,0.0223,0,0.0309,0.0306,0.0318,0.0296,0.0286,0.0333,0.0248,0.0233,0.0305,0.0192,0.0271,0.0173,0.0145,0.017,0.0163,0.0164,0.0269,0.0185,0.0192,0.0289,0.0428,0.0466,0.0499,0.0098,0.0098,0.0099,0,0,0.0301,0.0328,0.029,0.0293,0.0282,0.0252,0.0237,0.0219,0.0203,0.0193,0.0189,0.0164,0.0154,0.016,0.0138,0.0154,0.0189,0.018,0.0185,0.0191,0.0289,0.0429,0.0462,0.0101,0.0101,0.0101,0,0,0.0313,0.0314,0.0275,0.0283,0.0253,0.0261,0.0259,0.0224,0.0204,0.0193,0.0188,0.0185,0.0169,0.0145,0.0172,0.019,0.0147,0.0142,0.0272,0.0278,0.0283,0.0419,0.0216,0,0,0,0,0,0.0299,0.0315,0.0277,0.0271,0.0264,0.0265,0.0263,0.0247,0.0222,0.0222,0.0192,0.0214,0.016,0.0185,0.0185,0.0249,0.0131,0.0126,0.0121,0.0284,0.0291,0.0297,0,0,0,0,0,0,0.0297,0.0295,0.0276,0.0284,0.0279,0.0267,0.0264,0.0263,0.0223,0.0221,0.0217,0.0216,0.0234,0.0188,0.0187,0.0249,0.0217,0.0129,0.0124,0.012,0.0287,0.0292,0.0297,0,0,0,0,0,0.0295,0.0293,0.0286,0.0283,0.028,0.0252,0.0265,0.0263,0.024,0.024,0.0238,0.0219,0.0235,0.0232,0.0187,0.025,0.0217,0.0217,0.0126,0.0122,0.0119,0.029,0,0,0,0,0,0,0.0293,0.0312,0.0285,0.0281,0.0274,0.0252,0.0252,0.0264,0.0262,0.0257,0.0246,0.0245,0.0236,0.0233,0.0232,0.0252,0.0218,0.0218,0.0217,0.0123,0.012,0.0118,0,0,0,0,0,0,0.031,0.031,0.0284,0.0273,0.0269,0.0253,0.0252,0.0249,0.0262,0.0271,0.0268,0.0245,0.0222,0.0234,0.0233,0.0231,0.0219,0.0218,0.0218,0.0218,0.0121,0.0119,0,0,0,0,0,0,0.031,0.0309,0.0275,0.0272,0.0269,0.0245,0.025,0.0241,0.0255,0.0273,0.0253,0.0252,0.0222,0.0221,0.0234,0.0233,0.0231,0.0219,0.0218,0.0218,0.0218,0,0,0,0,0,0,0,0.0309,0.0321,0.0286,0.0271,0.0269,0.025,0.025,0.0251,0.0255,0.0254,0.0253,0.0252,0.0221,0.0221,0.022,0.0234,0,0,0.0219,0.0218,0,0,0,0,0,0,0,0,0.032,0.0321,0.0285,0.0284,0.0282,0.025,0.025,0.0251,0.0255,0.0254,0.0253,0.0253,0.0221,0.0221,0.022,0,0,0,0,0,0,0,0,0,0,0,0,0,0,0,0.0285,0.0284,0,0.025,0.025,0.0251,0.0255,0.0254,0.0253,0.0253,0.0221,0.022,0.022,0,0,0,0,0,0,0,0,0,0,0,0,0,0,0,0,0,0,0,0,0,0,0,0,0,0,0,0,0,0,0,0,0,0,0,0,0,0,0,0,0,0,0,0,0,0,0,0,0,0,0,0,0,0,0,0,0,0,0,0,0,0,0,0,0,0,0,0,0]}]],[[{"header":{"parameterUnit":"kt","parameterCategory":2,"dx":1,"dy":1,"la1":30.253999710083008,"la2":30.299108505249023,"lo1":-89.0895004272461,"lo2":-89.04439544677734,"nx":28,"ny":28,"refTime":"2022-09-30T21:00:00:Z","depth":"4","parameterNumber":2,"parameterNumberName":"U-component_of_CURRENTS"},"data":[0.0053,0.0248,0.0414,0.0595,0.0721,0.0839,0.098,0.1136,0.1184,0.1453,0.1442,0.1681,0.1661,0.186,0.1725,0.1728,0.165,0.1798,0.1794,0.1727,0.1734,0.174,0.1995,0,0,0,0,0,0.0038,0.0206,0.0388,0.0635,0.0727,0.0888,0.1076,0.1205,0.1489,0.1539,0.1781,0.1756,0.1803,0.1838,0.1734,0.1841,0.1757,0.171,0.1643,0.1731,0.1739,0.1984,0,0,0,0,0,0,-0.0039,0.0096,0.0338,0.0623,0.0785,0.0918,0.1092,0.1303,0.1517,0.1924,0.1896,0.2066,0.222,0.213,0.1913,0.1824,0.1822,0.1734,0.1741,0.1748,0.1939,0.1772,0.1661,0,0,0,0,0,-0.0085,0.0056,0.0291,0.0535,0.0802,0.1022,0.1376,0.1459,0.1851,0.2086,0.2227,0.2312,0.2275,0.2235,0.2072,0.1845,0.1937,0.1781,0.1786,0.1969,0.1833,0.1762,0.1764,0.1768,0.1769,0.177,0.177,0,-0.0157,-0.0004,0.0392,0.0532,0.0788,0.119,0.1399,0.1821,0.1964,0.2338,0.2342,0.2523,0.2592,0.2302,0.2291,0.2007,0.1971,0.1801,0.1998,0.1846,0.1772,0.1772,0.1771,0.1776,0.1776,0.1775,0.1775,0,-0.0166,-0.0007,0.0285,0.0725,0.0876,0.1174,0.1634,0.1834,0.2186,0.2378,0.2485,0.2695,0.2682,0.2612,0.2468,0.2336,0.2137,0.201,0.1957,0.1879,0.1784,0.1781,0.1786,0.1784,0.1782,0.178,0.1779,0,-0.0148,0.0031,0.036,0.0513,0.0862,0.1172,0.1558,0.1828,0.2142,0.2293,0.2535,0.2626,0.2738,0.2661,0.2477,0.2288,0.236,0.2139,0.2067,0.2174,0.2166,0.2123,0.2108,0.2283,0.2286,0.2289,0.2292,0,-0.0184,0.0083,0.0313,0.0424,0.0816,0.108,0.1342,0.1697,0.1878,0.2218,0.2318,0.2549,0.2641,0.2617,0.2431,0.2465,0.231,0.2315,0.2097,0.2077,0.2134,0.2114,0.2295,0.2296,0.2296,0.2298,0.2299,0,-0.0153,0.0017,0.0231,0.0617,0.0713,0.09,0.1365,0.1534,0.1828,0.1958,0.2194,0.228,0.2434,0.2374,0.2395,0.2445,0.2299,0.2195,0.2181,0.2131,0.1976,0.1731,0.1846,0.1846,0.1845,0.1845,0.1844,0,-0.016,0.002,0.0197,0.0413,0.0571,0.0827,0.1002,0.1254,0.1448,0.1663,0.1788,0.1972,0.1959,0.2094,0.2163,0.2122,0.2109,0.2143,0.1997,0.1986,0.1966,0.209,0.222,0.1838,0.1838,0.1839,0.1839,0,-0.0147,0.0132,0.015,0.0315,0.0572,0.0712,0.0872,0.1155,0.1345,0.1455,0.169,0.1758,0.1883,0.1913,0.1966,0.2023,0.2059,0.1979,0.198,0.1821,0.2101,0.2069,0.2066,0.2191,0.2197,0.2202,0.1835,0,-0.0051,0.012,0.0158,0.0397,0.053,0.0656,0.086,0.0997,0.1136,0.1264,0.1476,0.1498,0.1655,0.1637,0.1618,0.1816,0.1707,0.175,0.172,0.184,0.1635,0.164,0.1543,0.154,0.1538,0.1536,0,0,-0.0057,0.0167,0.0358,0.0449,0.0592,0.076,0.0874,0.0953,0.1136,0.1265,0.1222,0.1408,0.1378,0.1549,0.1578,0.1535,0.1511,0.1579,0.1752,0.1776,0.1798,0.1616,0.1623,0.1531,0.153,0.1529,0.1529,0,0.0026,0.0247,0.0341,0.0459,0.0663,0.0779,0.0827,0.1014,0.1105,0.1196,0.1248,0.1327,0.1334,0.1401,0.1415,0.1498,0.1445,0.1499,0.1639,0.1727,0.1754,0.1778,0.1605,0.1613,0.1523,0.1523,0.1523,0,0.0092,0.0295,0.0384,0.0652,0.074,0.0832,0.0927,0.1035,0.1129,0.1135,0.1224,0.1251,0.1249,0.1304,0.1324,0.13,0.1381,0.136,0.1371,0.1407,0.1495,0.1525,0.1552,0.1213,0.1213,0.1212,0,0,0.0147,0.0314,0.0558,0.0685,0.075,0.0896,0.0956,0.1046,0.1126,0.1147,0.1188,0.1212,0.1233,0.1254,0.1248,0.1289,0.125,0.1328,0.1342,0.1355,0.1397,0.1488,0.1516,0.1211,0.1211,0.1211,0,0,0.0137,0.046,0.0562,0.0739,0.0868,0.1009,0.1024,0.1116,0.1155,0.1162,0.118,0.1181,0.1227,0.1201,0.1181,0.1259,0.1191,0.1194,0.1305,0.1322,0.1336,0.1393,0.1149,0,0,0,0,0,0.0351,0.0437,0.0529,0.059,0.0865,0.0989,0.1008,0.1098,0.1139,0.1149,0.1185,0.1164,0.1197,0.1178,0.1175,0.124,0.1188,0.1192,0.1196,0.1343,0.1362,0.1378,0,0,0,0,0,0,0.0376,0.0451,0.0525,0.0691,0.0754,0.0986,0.1025,0.1046,0.1137,0.1145,0.1162,0.1163,0.1151,0.1178,0.1175,0.1239,0.115,0.1189,0.1193,0.1196,0.135,0.1365,0.1378,0,0,0,0,0,0.0396,0.0457,0.0907,0.0684,0.0739,0.0886,0.1023,0.1042,0.1095,0.1126,0.1131,0.1171,0.115,0.1149,0.1176,0.1242,0.1151,0.115,0.1192,0.1194,0.1197,0.1357,0,0,0,0,0,0,0.0411,0.0407,0.0916,0.0932,0.0693,0.0871,0.0912,0.1037,0.1067,0.1082,0.1129,0.1133,0.1149,0.1148,0.1147,0.1247,0.1153,0.1152,0.1151,0.1194,0.1196,0.1198,0,0,0,0,0,0,0.0376,0.042,0.0923,0.093,0.0945,0.0856,0.0894,0.0883,0.1062,0.1061,0.1072,0.113,0.1137,0.1148,0.1147,0.1125,0.1154,0.1153,0.1152,0.1152,0.1195,0.1197,0,0,0,0,0,0,0.0393,0.043,0.0924,0.0936,0.0949,0.1107,0.0837,0.1093,0.1149,0.1052,0.1153,0.1154,0.1134,0.1135,0.1147,0.1124,0.1125,0.1154,0.1153,0.1153,0.1152,0,0,0,0,0,0,0,0.0407,0.0172,0.0855,0.0941,0.0953,0.1079,0.108,0.1082,0.115,0.1151,0.1152,0.1154,0.1159,0.1158,0.1157,0.1124,0,0,0.1154,0.1153,0,0,0,0,0,0,0,0,0.0155,0.0168,0.0856,0.0861,0.0866,0.1079,0.108,0.1081,0.115,0.1151,0.1152,0.1153,0.1159,0.1158,0.1157,0,0,0,0,0,0,0,0,0,0,0,0,0,0,0,0.0857,0.0861,0,0.1079,0.108,0.1081,0.115,0.1151,0.1152,0.1153,0.1158,0.1158,0.1157,0,0,0,0,0,0,0,0,0,0,0,0,0,0,0,0,0,0,0,0,0,0,0,0,0,0,0,0,0,0,0,0,0,0,0,0,0,0,0,0,0,0,0,0,0,0,0,0,0,0,0,0,0,0,0,0,0,0,0,0,0,0,0,0,0,0,0,0,0]}],[{"header":{"parameterUnit":"kt","parameterCategory":2,"dx":1,"dy":1,"la1":30.253999710083008,"la2":30.299108505249023,"lo1":-89.0895004272461,"lo2":-89.04439544677734,"nx":28,"ny":28,"refTime":"2022-09-30T21:00:00:Z","depth":"4","parameterNumber":3,"parameterNumberName":"V-component_of_CURRENTS"},"data":[0.0766,0.0853,0.0919,0.1005,0.1116,0.1173,0.1201,0.115,0.1096,0.1034,0.0809,0.0747,0.0336,0.0533,-0.0013,-0.0097,-0.0289,-0.068,-0.0682,-0.1036,-0.1051,-0.1065,-0.0894,0,0,0,0,0,0.0731,0.0854,0.0889,0.0993,0.0986,0.111,0.108,0.1046,0.1012,0.0948,0.0963,0.0689,0.0357,0.0114,-0.0065,-0.0276,-0.0677,-0.0494,-0.0785,-0.1046,-0.1063,-0.0891,0,0,0,0,0,0,0.074,0.0759,0.0865,0.095,0.0994,0.106,0.1058,0.1043,0.1033,0.0929,0.0865,0.0567,0.0362,-0.0002,-0.0297,-0.0514,-0.0596,-0.0666,-0.0702,-0.0722,-0.0527,-0.0262,-0.0264,0,0,0,0,0,0.075,0.0823,0.0826,0.0947,0.1015,0.1018,0.1094,0.1076,0.1032,0.0956,0.0809,0.0591,0.0265,-0.0168,-0.0384,-0.0711,-0.1093,-0.1077,-0.1089,-0.1108,-0.0954,-0.0914,-0.0895,-0.1127,-0.1129,-0.1131,-0.1131,0,0.0797,0.0842,0.0891,0.092,0.0983,0.1043,0.1072,0.1067,0.0997,0.0865,0.0746,0.0505,0.0262,-0.0233,-0.0609,-0.1017,-0.1015,-0.1119,-0.1137,-0.0978,-0.094,-0.0915,-0.089,-0.1145,-0.1144,-0.1143,-0.1142,0,0.0826,0.0868,0.086,0.089,0.0939,0.0952,0.1,0.0944,0.0916,0.0777,0.0734,0.04,0.008,-0.0281,-0.0736,-0.0865,-0.1165,-0.1157,-0.111,-0.1081,-0.0933,-0.0902,-0.1168,-0.1163,-0.1158,-0.1155,-0.1152,0,0.0833,0.0835,0.0872,0.0893,0.0901,0.0868,0.0869,0.0812,0.0706,0.0603,0.039,0.0234,-0.0175,-0.0444,-0.0682,-0.0909,-0.1063,-0.1025,-0.1012,-0.1048,-0.1018,-0.1054,-0.102,-0.1327,-0.1325,-0.1324,-0.1323,0,0.0834,0.0807,0.082,0.0805,0.0759,0.0779,0.0775,0.0647,0.0589,0.0396,0.0317,-0.002,-0.0122,-0.0419,-0.0637,-0.0619,-0.1052,-0.1055,-0.0957,-0.0938,-0.1034,-0.1003,-0.1321,-0.1321,-0.1321,-0.132,-0.132,0,0.0818,0.0807,0.0824,0.0745,0.0731,0.0758,0.0637,0.0606,0.0414,0.0345,0.0159,0.0054,-0.0234,-0.0202,-0.0605,-0.048,-0.0569,-0.0707,-0.0716,-0.0531,-0.0403,-0.0483,-0.0711,-0.0706,-0.0702,-0.0697,-0.0693,0,0.0801,0.08,0.0766,0.0741,0.0718,0.0654,0.0621,0.0526,0.0449,0.033,0.0128,0.0053,0.0024,0.001,-0.02,-0.0366,-0.0504,-0.0349,-0.0538,-0.0544,-0.0342,-0.052,-0.0456,-0.0629,-0.0638,-0.0643,-0.0648,0,0.0764,0.0734,0.0733,0.0713,0.0668,0.0637,0.0592,0.0504,0.0452,0.0378,0.0254,0.0119,0.0072,0.0029,-0.0013,-0.0194,-0.0401,-0.0137,-0.0143,-0.019,-0.0672,-0.0462,-0.0479,-0.0416,-0.0424,-0.043,-0.0603,0,0.0753,0.0722,0.0713,0.068,0.0649,0.0645,0.0594,0.0569,0.0547,0.0498,0.0368,0.0318,0.0242,0.0185,0.0205,-0.0019,0.0051,0.0053,0.0085,-0.0051,-0.0094,-0.013,0.031,0.0312,0.0313,0.0314,0,0,0.0738,0.0697,0.0642,0.0636,0.0614,0.0591,0.0591,0.057,0.0576,0.0527,0.0575,0.0448,0.043,0.0278,0.0248,0.0269,0.0241,0.0298,0.0046,0.0017,-0.001,-0.0062,-0.0097,0.0316,0.0317,0.0317,0.0318,0,0.0729,0.0652,0.064,0.0624,0.0606,0.0593,0.0586,0.0582,0.0571,0.0576,0.0561,0.0481,0.0518,0.0429,0.0401,0.0308,0.0307,0.0328,0.023,0.0065,0.0034,0.0006,-0.005,-0.0083,0.0321,0.0321,0.0321,0,0.0722,0.0676,0.0653,0.0595,0.0591,0.0586,0.0583,0.0582,0.0572,0.0612,0.0612,0.0595,0.0579,0.054,0.0524,0.055,0.0367,0.0474,0.0465,0.0428,0.0258,0.0223,0.0193,0.0582,0.0582,0.0583,0,0,0.0722,0.0676,0.0637,0.0592,0.0582,0.058,0.0577,0.0588,0.0599,0.061,0.0625,0.0623,0.0594,0.0595,0.0591,0.0565,0.0511,0.0505,0.0493,0.0482,0.044,0.0269,0.0236,0.0586,0.0586,0.0586,0,0,0.0738,0.0672,0.0658,0.0593,0.0586,0.0584,0.0583,0.0585,0.0608,0.0621,0.0641,0.065,0.0623,0.0639,0.0679,0.0575,0.0624,0.0618,0.057,0.0555,0.0543,0.0494,0.0701,0,0,0,0,0,0.0719,0.0674,0.066,0.0644,0.0591,0.0579,0.058,0.0592,0.0597,0.0603,0.0629,0.0641,0.0653,0.0691,0.0696,0.0623,0.0627,0.0619,0.0613,0.0544,0.0528,0.0515,0,0,0,0,0,0,0.0713,0.0692,0.0662,0.0647,0.0635,0.058,0.0598,0.0602,0.0598,0.0602,0.0636,0.0642,0.0667,0.069,0.0694,0.0623,0.0699,0.0624,0.0618,0.0612,0.0539,0.0526,0.0514,0,0,0,0,0,0.0708,0.0691,0.0587,0.0651,0.064,0.0643,0.0599,0.0603,0.0611,0.0632,0.0639,0.0617,0.0666,0.0671,0.0692,0.062,0.0697,0.0698,0.062,0.0615,0.0611,0.0532,0,0,0,0,0,0,0.0704,0.0721,0.0587,0.0587,0.0656,0.0649,0.0643,0.0604,0.0643,0.0647,0.0614,0.0617,0.0665,0.067,0.0673,0.0615,0.0695,0.0696,0.0697,0.0616,0.0612,0.0609,0,0,0,0,0,0,0.073,0.072,0.0588,0.0593,0.0594,0.0654,0.0649,0.0659,0.0644,0.0626,0.0628,0.0615,0.0659,0.0668,0.0671,0.0688,0.0693,0.0695,0.0696,0.0696,0.0613,0.061,0,0,0,0,0,0,0.0727,0.0719,0.0594,0.0594,0.0595,0.0599,0.0667,0.0616,0.063,0.0626,0.0632,0.0633,0.0656,0.066,0.067,0.0685,0.0687,0.0693,0.0694,0.0695,0.0695,0,0,0,0,0,0,0,0.0725,0.0761,0.0579,0.0596,0.0597,0.0581,0.0582,0.0582,0.063,0.0631,0.0632,0.0632,0.0686,0.0687,0.0689,0.0682,0,0,0.0693,0.0694,0,0,0,0,0,0,0,0,0.0766,0.0762,0.0579,0.0578,0.0577,0.0581,0.0581,0.0582,0.063,0.0631,0.0631,0.0632,0.0686,0.0687,0.0689,0,0,0,0,0,0,0,0,0,0,0,0,0,0,0,0.0579,0.0578,0,0.0581,0.0581,0.0582,0.063,0.0631,0.0631,0.0632,0.0687,0.0688,0.0689,0,0,0,0,0,0,0,0,0,0,0,0,0,0,0,0,0,0,0,0,0,0,0,0,0,0,0,0,0,0,0,0,0,0,0,0,0,0,0,0,0,0,0,0,0,0,0,0,0,0,0,0,0,0,0,0,0,0,0,0,0,0,0,0,0,0,0,0,0]}]]]